{"data":{"norad_id":56835,"epoch":"2026-09-20T22:00:03.000096Z","epoch_age_seconds":81551,"freshness":"FRESH","line1":"1 56835U 23079N   26263.91670139  .00183339  00000+0  24999-2 0  9994","line2":"2 56835  42.9865  60.7628 0025335 302.9848 226.5775 15.55774557  5824","mean_motion":15.55774557,"eccentricity":0.0025335,"inclination_deg":42.9865,"raan_deg":60.7628,"arg_perigee_deg":302.9848,"mean_anomaly_deg":226.5775,"bstar":0.0024999,"rev_number":582,"period_min":92.558397585364,"perigee_km":382.72986008029,"apogee_km":417.07418380448,"semimajor_km":6778.0390219424,"source":"CELESTRAK","updated_at":"2026-09-21T09:00:33.516832Z"}}